Pritchett, Texas
Current Conditions -  °F | °C
As of 2:55 AM on Saturday 29 Nov 2014 (Local Time) from KJDD Reporting Station
Clear Clear  
Wind Chill: 57°   Ceiling: Unl
Heat Index: 57°   Visibility: 10mi
Dew Point: 54°   Wind: 10mph
Humidity: 88%   Direction: 200°SSW
Pressure: 30.01"   Gusts: NA
Location:  32.6267°N, 95.0888°W
Report Text: KJDD 290855Z AUTO 20009KT 10SM CLR 14/12 A3001 RMK AO2
Loading
Personal Weather Stations






























Interactive Weather Map New forecast layout! Learn more

10-Day Weather Forecast

Advertisements
Track Severe Weather on mobile